This is the latest recevied weather packets stored in our database for station/object KF7PIZ. If no packets are shown the sender has not sent any weather packets the latest 10 day(s).
| Time | Temp. | Humidity | Pressure | Rain* | Wind** | Luminosity | Snow |
|---|---|---|---|---|---|---|---|
| 1777755624 | 21.67° C | 28% | 1015.3 hPa | 0 mm | - | 89 W/m² | - |
| 1777755321 | 21.67° C | 29% | 1015.5 hPa | 0 mm | - | 92 W/m² | - |
| 1777755018 | 21.67° C | 29% | 1015.8 hPa | 0 mm | - | 112 W/m² | - |
| 1777754715 | 22.22° C | 30% | 1015.5 hPa | 0 mm | - | 138 W/m² | - |
| 1777754413 | 22.22° C | 29% | 1015.7 hPa | 0 mm | - | 148 W/m² | - |
| 1777754109 | 22.78° C | 28% | 1015.6 hPa | 0 mm | - | 141 W/m² | - |
| 1777753806 | 22.22° C | 29% | 1015.6 hPa | 0 mm | - | 160 W/m² | - |
| 1777753502 | 22.22° C | 28% | 1015.7 hPa | 0 mm | - | 168 W/m² | - |
| 1777753201 | 22.22° C | 27% | 1015.8 hPa | 0 mm | - | 147 W/m² | - |
| 1777752896 | 22.22° C | 27% | 1015.7 hPa | 0 mm | - | 120 W/m² | - |
| 1777752593 | 22.78° C | 27% | 1015.7 hPa | 0 mm | - | 144 W/m² | - |
| 1777752289 | 22.78° C | 29% | 1016.2 hPa | 0 mm | - | 167 W/m² | - |
| 1777751987 | 22.78° C | 29% | 1015.8 hPa | 0 mm | - | 186 W/m² | - |
| 1777751684 | 23.89° C | 25% | 1016.1 hPa | 0 mm | - | 243 W/m² | - |
| 1777751380 | 23.33° C | 26% | 1016 hPa | 0 mm | - | 320 W/m² | - |
| 1777751077 | 23.33° C | 28% | 1016 hPa | 0 mm | - | 276 W/m² | - |
| 1777750772 | 22.78° C | 27% | 1016 hPa | 0 mm | - | 196 W/m² | - |
| 1777750470 | 22.78° C | 26% | 1016 hPa | 0 mm | - | 188 W/m² | - |
| 1777750165 | 23.33° C | 26% | 1016 hPa | 0 mm | - | 189 W/m² | - |
| 1777749863 | 23.33° C | 25% | 1016.3 hPa | 0 mm | - | 201 W/m² | - |
| 1777749560 | 23.33° C | 26% | 1016.2 hPa | 0 mm | - | 262 W/m² | - |
| 1777749258 | 23.89° C | 27% | 1016.2 hPa | 0 mm | - | 362 W/m² | - |
| 1777748955 | 23.89° C | 24% | 1016.2 hPa | 0 mm | - | 408 W/m² | - |
| 1777748652 | 24.44° C | 28% | 1016.2 hPa | 0 mm | - | 431 W/m² | - |
| 1777748348 | 23.89° C | 25% | 1016.2 hPa | 0 mm | - | 514 W/m² | - |
* Rain latest hour (hover to see other rain measurements)
** Current wind speed in m/s (hover to see current wind gust speed)